�������C�����ː����j�^�v���󋵏��
Date,Time,Cs137(Bq/L),Cs134(Bq/L),�S��(Bq/L)
2016/10/12,00:00,0.95,0.076,ND
2016/10/12,00:10,0.98,0.070,ND
2016/10/12,00:20,1.0,0.068,ND
2016/10/12,00:30,1.0,0.059,ND
2016/10/12,00:40,1.0,0.055,ND
2016/10/12,00:50,1.0,0.055,ND
2016/10/12,01:00,1.0,0.056,ND
2016/10/12,01:10,1.0,0.070,ND
2016/10/12,01:20,1.0,0.077,ND
2016/10/12,01:30,0.97,0.089,ND
2016/10/12,01:40,0.96,0.097,ND
2016/10/12,01:50,0.98,0.10,ND
2016/10/12,02:00,0.98,0.10,ND
2016/10/12,02:10,0.98,0.097,ND
2016/10/12,02:20,0.99,0.096,ND
2016/10/12,02:30,0.99,0.092,ND
2016/10/12,02:40,0.99,0.093,ND
2016/10/12,02:50,0.99,0.093,ND
2016/10/12,03:00,1.0,0.092,ND
2016/10/12,03:10,1.0,0.094,ND
2016/10/12,03:20,1.0,0.094,ND
2016/10/12,03:30,1.0,0.092,ND
2016/10/12,03:40,1.0,0.099,ND
2016/10/12,03:50,1.0,0.089,ND
2016/10/12,04:00,1.0,0.086,ND
2016/10/12,04:10,1.0,0.094,ND
2016/10/12,04:20,1.0,0.10,ND
2016/10/12,04:30,1.0,0.10,ND
2016/10/12,04:40,1.1,0.091,ND
2016/10/12,04:50,1.1,0.098,ND
2016/10/12,05:00,1.1,0.10,ND
2016/10/12,05:10,1.1,0.10,ND
2016/10/12,05:20,1.1,0.11,ND
2016/10/12,05:30,1.1,0.12,ND
2016/10/12,05:40,1.1,0.13,ND
2016/10/12,05:50,1.1,0.13,ND
2016/10/12,06:00,1.1,0.13,ND
2016/10/12,06:10,1.1,0.12,ND
2016/10/12,06:20,1.1,0.10,ND
2016/10/12,06:30,1.1,0.097,ND
2016/10/12,06:40,1.1,0.090,ND
2016/10/12,06:50,1.1,0.090,ND
2016/10/12,07:00,1.1,0.079,ND
2016/10/12,07:10,1.1,0.083,ND
2016/10/12,07:20,1.1,0.082,ND
2016/10/12,07:30,1.1,0.095,ND
2016/10/12,07:40,1.1,0.095,ND
2016/10/12,07:50,1.0,0.097,ND
2016/10/12,08:00,1.0,0.11,ND
2016/10/12,08:10,1.0,0.10,ND
2016/10/12,08:20,1.1,0.11,ND
2016/10/12,08:30,1.1,0.10,ND
2016/10/12,08:40,1.1,0.11,ND
2016/10/12,08:50,1.1,0.11,ND
2016/10/12,09:00,1.1,0.11,ND
2016/10/12,09:10,1.1,0.11,ND
2016/10/12,09:20,1.1,0.11,ND
2016/10/12,09:30,1.1,0.11,ND
2016/10/12,09:40,1.1,0.099,ND
2016/10/12,09:50,1.0,0.094,ND
2016/10/12,10:00,1.0,0.092,ND
2016/10/12,10:10,1.0,0.089,ND
2016/10/12,10:20,1.1,0.075,ND
2016/10/12,10:30,1.1,0.077,ND
2016/10/12,10:40,1.1,0.083,ND
2016/10/12,10:50,1.1,0.085,ND
2016/10/12,11:00,1.1,0.083,ND
2016/10/12,11:10,1.0,0.10,ND
2016/10/12,11:20,0.98,0.11,ND
2016/10/12,11:30,1.0,0.11,ND
2016/10/12,11:40,1.0,0.11,ND
2016/10/12,11:50,1.1,0.080,ND
2016/10/12,12:00,1.1,0.079,ND
2016/10/12,12:10,1.1,0.079,ND
2016/10/12,12:20,1.1,0.075,ND
2016/10/12,12:30,1.1,0.072,ND
2016/10/12,12:40,1.1,0.068,ND
2016/10/12,12:50,1.1,0.079,ND
2016/10/12,13:00,1.1,0.078,ND
2016/10/12,13:10,1.1,0.082,9.2
2016/10/12,13:20,1.0,0.091,ND
2016/10/12,13:30,1.0,0.096,ND
2016/10/12,13:40,1.0,0.10,ND
2016/10/12,13:50,1.0,0.095,ND
2016/10/12,14:00,1.0,0.093,ND
2016/10/12,14:10,1.0,0.090,ND
2016/10/12,14:20,1.1,0.087,ND
2016/10/12,14:30,1.1,0.079,ND
2016/10/12,14:40,1.1,0.079,ND
2016/10/12,14:50,1.1,0.079,ND
2016/10/12,15:00,1.1,0.089,ND
2016/10/12,15:10,1.1,0.084,ND
2016/10/12,15:20,1.1,0.092,ND
2016/10/12,15:30,1.1,0.082,ND
2016/10/12,15:40,1.1,0.083,ND
2016/10/12,15:50,1.1,0.077,ND
2016/10/12,16:00,1.1,0.076,ND
2016/10/12,16:10,1.1,0.082,ND
2016/10/12,16:20,1.2,0.091,ND
2016/10/12,16:30,1.1,0.13,ND
2016/10/12,16:40,1.1,0.11,ND
2016/10/12,16:50,1.1,0.11,ND
2016/10/12,17:00,1.1,0.11,ND
2016/10/12,17:10,1.2,0.12,ND
2016/10/12,17:20,1.2,0.11,ND
2016/10/12,17:30,1.2,0.12,ND
2016/10/12,17:40,1.2,0.12,ND
2016/10/12,17:50,1.2,0.12,ND
2016/10/12,18:00,1.2,0.12,ND
2016/10/12,18:10,1.2,0.12,ND
2016/10/12,18:20,1.3,0.13,ND
2016/10/12,18:30,1.3,0.13,ND
2016/10/12,18:40,1.2,0.14,ND
2016/10/12,18:50,1.2,0.13,ND
2016/10/12,19:00,1.3,0.12,ND
2016/10/12,19:10,1.3,0.12,ND
2016/10/12,19:20,1.3,0.12,ND
2016/10/12,19:30,1.3,0.11,ND
2016/10/12,19:40,1.3,0.11,ND
2016/10/12,19:50,1.3,0.10,ND
2016/10/12,20:00,1.3,0.11,ND
2016/10/12,20:10,1.3,0.11,ND
2016/10/12,20:20,1.3,0.11,ND
2016/10/12,20:30,1.2,0.11,ND
2016/10/12,20:40,1.3,0.11,ND
2016/10/12,20:50,1.2,0.12,ND
2016/10/12,21:00,1.2,0.11,ND
2016/10/12,21:10,1.3,0.11,ND
2016/10/12,21:20,1.2,0.11,ND
2016/10/12,21:30,1.2,0.10,ND
2016/10/12,21:40,1.2,0.091,ND
2016/10/12,21:50,1.2,0.095,ND
2016/10/12,22:00,1.2,0.098,ND
2016/10/12,22:10,1.2,0.10,ND
2016/10/12,22:20,1.2,0.10,ND
2016/10/12,22:30,1.2,0.10,ND
2016/10/12,22:40,1.2,0.11,ND
2016/10/12,22:50,1.1,0.11,ND
2016/10/12,23:00,1.1,0.11,ND
2016/10/12,23:10,1.2,0.10,ND
2016/10/12,23:20,1.1,0.098,ND
2016/10/12,23:30,1.1,0.11,ND
2016/10/12,23:40,1.1,0.11,ND
2016/10/12,23:50,1.1,0.10,ND
